Regional Weather Roundup
Issued by NWS

Home | Current Version | Previous Version | Text Only | Print | Product List | Glossary Off
Versions: 1 2 3 4 5 6 7 8 9 10 11 12 13 14 15 16 17 18 19 20 21 22 23 24 25 26 27 28 29 30 31 32 33 34 35 36 37 38 39 40 41 42 43 44 45 46 47 48 49 50

000
ASUS43 KLOT 021312
RWRIL

ILLINOIS REGIONAL WEATHER ROUNDUP
NATIONAL WEATHER SERVICE CHICAGO/ROMEOVILLE IL
800 AM CDT TUE JUN 02 2015

NOTE: "FAIR" INDICATES FEW OR NO CLOUDS BELOW 12,000 FEET WITH NO
SIGNIFICANT WEATHER AND/OR OBSTRUCTIONS TO VISIBILITY.

* THESE STATIONS ARE NOT UNDER NWS QUALITY CONTROL. THEY ALSO MAY NOT
  REPORT WEATHER SUCH AS PRECIPITATION OR FOG.

ILZ001-002-007-009-015-016-024-021400-
NORTHWEST ILLINOIS

CITY           SKY/WX    TMP DP  RH WIND       PRES   REMARKS
MOLINE         SUNNY     56  45  66 E5        30.19S
STERLING*      MOSUNNY   54  43  66 E7        30.21S
SAVANNA*       SUNNY     55  42  62 CALM      30.21R
$$

ILZ003-004-008-010-011-017-018-021400-
NORTH CENTRAL ILLINOIS

CITY           SKY/WX    TMP DP  RH WIND       PRES   REMARKS
ROCKFORD       PTSUNNY   52  41  66 VRB3      30.23S
FREEPORT*      MOSUNNY   50  42  73 E3        30.23S
ROCHELLE*      MOSUNNY   51  41  68 CALM      30.22R
DE KALB*       SUNNY     52  42  69 CALM      30.21S
PERU*          SUNNY     53  41  65 CALM      30.21R
$$

ILZ005-006-012>014-019>023-021400-
NORTHEAST ILLINOIS

CITY           SKY/WX    TMP DP  RH WIND       PRES   REMARKS
CHICAGO-OHARE  MOSUNNY   53  43  68 CALM      30.21R
CHICAGO-MIDWAY MOSUNNY   56  46  69 CALM      30.21S
AURORA         SUNNY     54  42  64 CALM      30.22R
LANSING*       SUNNY     55  48  76 SE3       30.21S
JOLIET*        SUNNY     56  49  76 SE3       30.22R
WAUKEGAN       SUNNY     52  44  74 E5        30.21R
DUPAGE AIRPORT SUNNY     54  44  69 CALM      30.21R
KANKAKEE*      SUNNY     54  49  84 CALM      30.21S
WHEELING       SUNNY     53  44  71 CALM      30.23R
MORRIS*        SUNNY     54  46  74 SE3       30.18F
ROMEOVILLE*    SUNNY     54  46  75 S3        30.21S
NORTHERLY ISL    N/A     52  46  80 NE3         N/A
$$

LMZ740>746-021400-
SOUTHERN LAKE MICHIGAN

STATION/POSITION SKY/WX   TEMP    WIND        PRES    VSBY  WAVE
                          AIR SEA DIR/SP/G                  HT/PER
                          (F)     (DEG/KT/KT) (MB)    (MI)  (FT/S)
SOUTHERN BUOY              42 38   90/  6/  6 1024.0R         1
HARRISON CRIB              48     340/  3/  3   N/A
BURNHAM HARBOR             53      50/  4       N/A
CALUMET HARBOR             52      50/  4/  6   N/A
BURNS HARBOR                      180/  4/  7 1023.4R
MICHIGAN CITY              53     150/  3/  5   N/A
MICHIGAN CITY 6N           54 55  160/  6/  8   N/A           1/ 4
ST. JOSEPH                 54 55  180/  2/  4   N/A           1
$$

ILZ025>027-034>036-040-047-049-050-058-095>099-021400-
WEST-CENTRAL ILLINOIS

CITY           SKY/WX    TMP DP  RH WIND       PRES   REMARKS
QUINCY         CLOUDY    59  55  87 SE5       30.16R
GALESBURG*     SUNNY     55  47  74 E3        30.19S
MACOMB*        SUNNY     54  50  86 E5        30.21R
JACKSONVILLE*  CLOUDY    62  55  78 E7        30.16S
PITTSFIELD*    SUNNY     60  56  85 CALM      30.17R
$$

ILZ028>032-037-038-041>044-048-051>054-059>061-021400-
CENTRAL ILLINOIS

CITY           SKY/WX    TMP DP  RH WIND       PRES   REMARKS
PONTIAC        SUNNY     55  49  80 E6        30.21R
BLOOMINGTON    SUNNY     57  51  80 E7        30.20R
DECATUR        SUNNY     58  50  75 E9        30.17S
PEORIA         MOSUNNY   59  48  67 NE5       30.19R
LACON*         SUNNY     53  43  70 CALM      30.19S
LINCOLN*       SUNNY     59  51  74 E6        30.17S
SPRINGFIELD    SUNNY     61  51  70 E8        30.17S
TAYLORVILLE    SUNNY     55  50  82 E9        30.16S
$$

ILZ033-039-045-046-055>057-062-063-021400-
EAST-CENTRAL ILLINOIS

CITY           SKY/WX    TMP DP  RH WIND       PRES   REMARKS
CHAMPAIGN      SUNNY     57  49  74 E12       30.18R
DANVILLE*      SUNNY     56  50  81 E8        30.17R
RANTOUL*       SUNNY     58  51  76 E8        30.19R
MATTOON        MOSUNNY   54  49  83 E7        30.16R
PARIS*         SUNNY     56  52  86 E9        30.18S
$$

ILZ079-100>102-021400-
SOUTHWEST ILLINOIS

CITY           SKY/WX    TMP DP  RH WIND       PRES   REMARKS
ALTON          MOSUNNY   61  61 100 NE7       30.15S
BELLEVILLE     CLOUDY    60  59  97 NE5       30.14R
CAHOKIA*       CLOUDY    62  55  77 E7        30.14S
SPARTA*        CLOUDY    56  55  96 NE6       30.15R FOG
$$

ILZ064>066-069>071-074>076-080>082-084>086-088>090-092>094-021400-
SOUTH-CENTRAL ILLINOIS

CITY           SKY/WX    TMP DP  RH WIND       PRES   REMARKS
CARBONDALE     CLOUDY    59  56  89 NE5       30.14R FOG
CAIRO*         CLOUDY    60  57  89 N5        30.13R
EFFINGHAM*     CLOUDY    57  52  83 N3        30.18R HAZE
MARION         CLOUDY    59  57  94 MISG      30.14S FOG
MT. VERNON     CLOUDY    57  52  82 N3        30.16R
CENTRALIA*     CLOUDY    58  52  79 E3        30.16R
SALEM*         CLOUDY    60  54  80 NE5       30.16R
$$

ILZ067-068-072-073-078-083-087-091-021400-
SOUTHEAST ILLINOIS

CITY           SKY/WX    TMP DP  RH WIND       PRES   REMARKS
LAWRENCEVILLE  CLOUDY    57  51  80 N6        30.16R
FLORA*         CLOUDY    57  52  82 NE3       30.16S
FAIRFIELD*     CLOUDY    57  54  88 NE6       30.14S FOG
HARRISBURG*    CLOUDY    58  58 100 NE6       30.15S FOG
ROBINSON*      CLOUDY    56  51  85 N5        30.17R
CARMI*         CLOUDY    57  54  88 N6        30.14R HAZE
$$

ABBREVIATIONS USED IN REMARKS
   TC - TEMPERATURE IN CELSIUS
  WCI - WIND CHILL INDEX
   HX - HEAT INDEX
  VSB - VISIBILITY
$$




USA.gov is the U.S. government's official web portal to all federal, state and local government web resources and services.